Location: Cactus School
(34.5700°N, 118.0931°W)
Time: 21:17:27
(UTC-07:00)

Transit 4A - Pass Details

Date: 19 April 2024
Orbit: 871 x 971 km, 66.8° (Epoch: 18 May)

Event Time Altitude Azimuth Distance (km) Brightness Sun altitude
Rises 12:57:32 0° 196° (SSW) 3,561 11.3 66.9°
Reaches altitude 10° 13:00:06 10° 193° (SSW) 2,606 10.8 66.9°
Maximum altitude 13:06:03 64° 113° (ESE) 994 9.4 66.8°
Drops below altitude 10° 13:11:54 10° 33° (NNE) 2,555 10.1 66.5°
Sets 13:14:23 0° 31° (NNE) 3,487 10.7 66.4°
